448  
ASUS44 KMOB 191012  
RWRMOB  
REGIONAL WEATHER ROUNDUP  
NATIONAL WEATHER SERVICE MOBILE AL  
500 AM CDT FRI JUL 19 2019  
 
NOTE: "FAIR" INDICATES FEW OR NO CLOUDS BELOW 12,000 FEET WITH NO  
SIGNIFICANT WEATHER AND/OR S TO VISIBILITY
.  
 
* THESE STATIONS ARE PART OF THE UNIVERSITY OF SOUTH ALABAMA  
MESONET AND ARE NOT UNDER NWS OR FAA QUALITY CONTROL.
 
 
ALZ061>064-191100-  
COASTAL ALABAMA  
 
CITY SKY/WX TMP DP RH WIND PRES REMARKS
 
MOBILE REG APT FAIR 77 76 96 CALM 30.04R  
BROOKLEY FIELD FAIR 78 76 93 CALM 30.04R  
USA CAMPUS* N/A 77 77 100 CALM 30.05R  
DOG RIVER* N/A 77 75 94 CALM 30.04R  
 
 
CITY SKY/WX TMP DP RH WIND PRES REMARKS
 
GULF SHORES FAIR 74 74 99 CALM 30.03R  
 

 
 
ALZ051>060-191100-  
INTERIOR SOUTHWEST AND SOUTH CENTRAL ALABAMA  
 
CITY SKY/WX TMP DP RH WIND PRES REMARKS
 
GREENVILLE FAIR 75 70 84 CALM 30.03R  
EVERGREEN FAIR 76 72 87 CALM 30.04R  
ATMORE* N/A N/A N/A N/A CALM 30.05R  
ANDALUSIA/OPP FAIR 77 73 87 CALM 30.04R  
ANDALUSIA* NOT AVBL  
FLORALA APT FAIR 76 72 87 CALM 30.07R  
FLORALA* N/A 70 70 100 CALM 30.06R  
 

 
 
FLZ001>006-191100-  
WESTERN FLORIDA PANHANDLE  
 
CITY SKY/WX TMP DP RH WIND PRES REMARKS
 
PENSACOLA FAIR 79 79 100 CALM 30.03R  
NAS PENSACOLA FAIR 77 77 100 CALM 30.02S  
MILTON FAIR 74 74 100 CALM 30.04R  
WHTNG S FIELD FAIR 74 74 100 CALM 30.04R  
 
 
CITY SKY/WX TMP DP RH WIND PRES REMARKS
 
JAY* N/A 75 75 100 CALM 30.05S  
DUKE FIELD FAIR 75 75 100 CALM 30.04R  
CRESTVIEW FAIR 74 72 93 CALM 30.05R  
VALPARAISO FAIR 77 74 90 CALM 30.03R  
DESTIN MOCLDY 80 77 90 CALM 30.03R  
 

 
 
MSZ076-079-191100-  
INTERIOR SOUTHEAST MISSISSIPPI  
 
CITY SKY/WX TMP DP RH WIND PRES REMARKS
 
LEAKESVILLE* N/A 77 77 100 W2 30.05R  
AGRICOLA* N/A 75 75 100 CALM 30.05R  
 

 
 
MARINE OBSERVATIONS  
 
STATION/POSITION TIME TEMP WIND PRES WAVE
 
AIR SEA DIR/SP/G HT/PER  
(UTC) (F) (DEG/KT/KT) (MB) (FT/S)  
PETIT BOIS ISLND 0930 85 240/ 9/ 10 1016.4F  
GRAND BAY 0845 83 290/ 3 1018.0R  
KATRINA CUT 0930 270/ 10 1016.9R  
CEDAR POINT 0900 85 240/ 9 1016.3  
E DAUPHIN ISLAND 1000 84 270/ 3/ 4 1016.8R  
USCG MOBILE BAY 0930 81 87 220/ 2/ 4 1016.6S  
STATE DOCKS 0930 81 87 1016.4F  
MEAHER PARK 0930 83 250/ 4 1016.6F  
WEEKS BAY 0845 77 1016.0S  
FORT MORGAN 0930 84 230/ 9/ 10 1016.6R  
12 S ORANGE BCH 0950 85 86 220/ 6/ 8 1016.8R 1/ 6  
PENSACOLA BAY 0930 82 88 310/ 1/ 2 1016.8S  
64 S DAUPHIN ISL 0950 84 87 190/ 6/ 8 1017.0R 1/ 6  
 

 
 
SELECTED LOCATIONS ACROSS THE REGION  
 
CITY SKY/WX TMP DP RH WIND PRES REMARKS
 
NEW ORLEANS MOCLDY 79 75 87 CALM 30.02R  
GULFPORT FAIR 79 76 90 CALM 30.01S  
PASCAGOULA AP FOG 76 72 87 CALM 30.02R VSB 3/4  
PASCAGOULA* N/A 79 77 94 CALM 30.01S  
HATTIESBURG N/A 77 74 90 CALM 30.03R  
LAUREL FAIR 75 74 96 CALM 30.04R  
MERIDIAN FAIR 77 74 90 CALM 30.03R  
JACKSON FAIR 76 73 91 CALM 30.02R  
MONTGOMERY FAIR 76 73 91 CALM 30.03R  
TROY FAIR 73 72 96 CALM 30.05R  
ASHFORD* NOT AVBL  
DOTHAN FAIR 76 72 87 S5 30.08R  
PANAMA CITY FAIR 76 73 91 CALM 30.03R  
 

 
 
 
 
CLICK HERE TO GO TO PREVIOUS BULLETINS.

The Nexlab AL Page
The Nexlab FL Page
The Nexlab MS Page Main Text Page